Terug naar catalogus

COSMOS 2251 DEB

ActiefLEO
NORAD 34021·DEBRIS·🇷🇺 Russia

Gelanceerd Jun 16, 1993 vanaf Plesetsk Cosmodrome

Loading…

Volgende Passages (komende 24 uur)

TLE

VersSource: Space-Track

Epoch: Sep 14, 2026, 23:01 UTC

1 34021U 93036HG  26257.95944288  .00000711  00000-0  18764-3 0  9990
2 34021  74.0373 330.8223 0019274  41.2941 137.1141 14.50677412926340

Volg COSMOS 2251 DEB in realtime met AllMySat

Download on the App Store